[[{"header":{"parameterUnit":"m.s-1","parameterCategory":1,"la1":30.2991,"la2":30.254,"lo1":-89.0895,"lo2":-89.0444,"dy":0.0017,"dx":0.0017,"nx":28,"ny":28,"refTime":"2025-07-17T21:00:00:Z","depth":0,"parameterNumber":2,"parameterNumberName":"U-component_of_WINDS"},"data":[0,0,0,0,0,0,0,0,0,0,0,0,0,0,0,0,0,0,0,0,0,0,0,0,0,0,0,0,0,0,0,0,0,0,0,0,0,0,0,0,0,0,0,0,0,0,0,0,0,0,0,0,0,0,0,0,0,0,0.5921,0.5919,0,0.572,0.5718,0.5715,0.5515,0.5512,0.551,0.5507,0.5301,0.5298,0.5295,0,0,0,0,0,0,0,0,0,0,0,0,0,0.6131,0.6128,0.5922,0.5919,0.5917,0.572,0.5718,0.5715,0.5515,0.5512,0.5509,0.5506,0.5302,0.5298,0.5295,0,0,0,0,0,0,0,0,0,0,0,0,0,0.5996,0.6128,0.5922,0.5793,0.578,0.5721,0.5717,0.5714,0.5516,0.5512,0.5508,0.5504,0.5303,0.5298,0.5294,0.5346,0,0,0.528,0.5278,0,0,0,0,0,0,0,0,0.6004,0.5989,0.5815,0.5802,0.5787,0.5638,0.5715,0.5591,0.5517,0.5616,0.5507,0.5502,0.5416,0.5402,0.5373,0.5336,0.5327,0.528,0.5277,0.5275,0.5274,0,0,0,0,0,0,0,0.6014,0.5996,0.5842,0.5812,0.5795,0.5745,0.5721,0.5691,0.5541,0.5607,0.5592,0.5571,0.5408,0.5378,0.5367,0.5324,0.528,0.5276,0.5273,0.5271,0.5317,0.5321,0,0,0,0,0,0,0.6043,0.6005,0.5848,0.5836,0.5888,0.5744,0.5718,0.569,0.5541,0.5514,0.5575,0.5563,0.5388,0.5372,0.5359,0.5408,0.5275,0.5271,0.5268,0.5313,0.5318,0.5322,0,0,0,0,0,0,0.6048,0.6031,0.5856,0.5916,0.589,0.5745,0.5715,0.5688,0.5658,0.5516,0.5488,0.5572,0.5384,0.5365,0.535,0.5398,0.5269,0.5265,0.5309,0.5315,0.532,0.5509,0,0,0,0,0,0,0.6055,0.6034,0.6053,0.5918,0.5888,0.5852,0.5718,0.5687,0.5651,0.5633,0.5506,0.5481,0.5379,0.5358,0.5346,0.539,0.5261,0.5304,0.5311,0.5318,0.5498,0.5521,0.5541,0,0,0,0,0,0.6063,0.6114,0.6055,0.6037,0.5908,0.5855,0.5838,0.5719,0.5656,0.5673,0.5581,0.5485,0.5395,0.5358,0.5342,0.5386,0.53,0.5309,0.5318,0.5489,0.5516,0.554,0,0,0,0,0,0,0.6259,0.6094,0.6027,0.6036,0.5961,0.5822,0.584,0.5753,0.5695,0.5681,0.5536,0.5509,0.551,0.5446,0.5408,0.5427,0.5334,0.534,0.5469,0.5495,0.5515,0.5531,0.5257,0,0,0,0,0,0.6303,0.6274,0.6132,0.6153,0.6119,0.5987,0.5959,0.5874,0.5791,0.5758,0.5665,0.5588,0.5541,0.5514,0.5464,0.5487,0.5456,0.551,0.5531,0.5549,0.5556,0.5562,0.5584,0.5351,0.5351,0.5351,0,0,0.6394,0.63,0.6291,0.619,0.6122,0.6095,0.5961,0.5938,0.5916,0.5754,0.5734,0.5664,0.5567,0.5572,0.5569,0.5518,0.5613,0.556,0.5576,0.5573,0.5574,0.5596,0.5616,0.5357,0.5356,0.5355,0,0,0.6545,0.6473,0.6482,0.6416,0.6315,0.6226,0.6229,0.6102,0.6048,0.6026,0.5903,0.5875,0.5799,0.5734,0.5692,0.5818,0.5727,0.5805,0.5917,0.5924,0.5943,0.5958,0.6003,0.602,0.5813,0.5813,0.5814,0,0.6671,0.6626,0.6498,0.6482,0.6441,0.6292,0.63,0.6243,0.6131,0.6105,0.605,0.595,0.5875,0.5861,0.5892,0.5863,0.586,0.582,0.595,0.5965,0.5977,0.6018,0.6035,0.5824,0.5822,0.5821,0.582,0,0.6785,0.6755,0.6775,0.667,0.663,0.6627,0.6498,0.6473,0.6391,0.6308,0.6286,0.6191,0.6118,0.6108,0.6028,0.6083,0.6055,0.5977,0.5881,0.6012,0.6048,0.6062,0.5838,0.5835,0.5831,0.5829,0,0,0.7055,0.6879,0.6888,0.6838,0.6714,0.6688,0.6677,0.6606,0.6587,0.6514,0.6501,0.6439,0.6366,0.6318,0.6229,0.6236,0.6341,0.6157,0.6152,0.6194,0.6394,0.6454,0.6474,0.628,0.6282,0.6284,0.6402,0,0.7186,0.7157,0.7041,0.7047,0.7017,0.6875,0.6865,0.6788,0.671,0.6672,0.6584,0.6543,0.645,0.642,0.642,0.6329,0.6379,0.6318,0.6265,0.6265,0.6295,0.6492,0.6555,0.6672,0.6415,0.6418,0.6419,0,0.7334,0.7271,0.7274,0.715,0.7133,0.7126,0.7051,0.7017,0.6926,0.6868,0.6814,0.6714,0.6693,0.6603,0.6572,0.6533,0.6504,0.6456,0.6457,0.6448,0.6351,0.6489,0.6706,0.6724,0.644,0.6438,0.6437,0,0.7531,0.7446,0.7436,0.7398,0.7253,0.7252,0.7191,0.7096,0.706,0.6993,0.6968,0.6901,0.6864,0.6814,0.6698,0.6643,0.668,0.658,0.6631,0.6634,0.6645,0.6647,0.6862,0.6627,0.6627,0.6627,0.6626,0,0.7689,0.7697,0.7522,0.7517,0.7521,0.7386,0.7393,0.7319,0.7236,0.7212,0.7085,0.7066,0.6914,0.6877,0.6786,0.6774,0.6758,0.671,0.6686,0.6722,0.6728,0.6702,0.6691,0.6631,0.663,0.6629,0.6629,0,0.791,0.7793,0.7774,0.7638,0.7604,0.7612,0.7495,0.7484,0.7397,0.7369,0.7355,0.7219,0.7168,0.7048,0.6966,0.6904,0.6916,0.6872,0.6947,0.6932,0.699,0.6986,0.7195,0.7215,0.697,0.6972,0.6974,0,0.8018,0.802,0.7885,0.786,0.7805,0.7767,0.7729,0.7596,0.7562,0.7458,0.7459,0.7399,0.7343,0.7269,0.7163,0.7099,0.7052,0.713,0.7042,0.7077,0.7053,0.7055,0.7054,0.715,0.7153,0.7156,0.7158,0,0.8223,0.8165,0.8116,0.8047,0.8006,0.7945,0.7877,0.7864,0.7714,0.7682,0.7629,0.7586,0.7502,0.7443,0.7363,0.7299,0.7204,0.7186,0.7195,0.7232,0.7275,0.7252,0.7,0.7182,0.718,0.7178,0.7177,0.7176,0.839,0.8385,0.8289,0.8238,0.8173,0.8112,0.8094,0.8005,0.7959,0.788,0.7804,0.7759,0.7665,0.7547,0.749,0.7452,0.7403,0.7416,0.7419,0.7424,0.744,0.7281,0.7437,0.7436,0.7435,0.7434,0.7434,0,0.8588,0.8519,0.8474,0.8382,0.8342,0.8256,0.8175,0.8147,0.8109,0.8031,0.7978,0.7917,0.7859,0.7748,0.768,0.7671,0.7626,0.7658,0.7657,0.7644,0.7487,0.7487,0.7696,0.7695,0.7695,0.7695,0.7695,0.7695,0.8687,0.8673,0.8604,0.8557,0.8486,0.8441,0.8403,0.8346,0.8282,0.822,0.8171,0.8098,0.8006,0.793,0.7873,0.7841,0.7822,0.7869,0.7824,0.768,0.7655,0.7632,0.763,0.7866,0.7866,0.7983,0.7984,0.7985]},{"header":{"parameterUnit":"m.s-1","parameterCategory":1,"la1":30.2991,"la2":30.254,"lo1":-89.0895,"lo2":-89.0444,"dy":0.0017,"dx":0.0017,"nx":28,"ny":28,"refTime":"2025-07-17T21:00:00:Z","depth":0,"parameterNumber":3,"parameterNumberName":"V-component_of_WINDS"},"data":[0,0,0,0,0,0,0,0,0,0,0,0,0,0,0,0,0,0,0,0,0,0,0,0,0,0,0,0,0,0,0,0,0,0,0,0,0,0,0,0,0,0,0,0,0,0,0,0,0,0,0,0,0,0,0,0,0,0,6.6681,6.6684,0,6.695,6.6953,6.6956,6.6969,6.6966,6.6963,6.696,6.722,6.723,6.724,0,0,0,0,0,0,0,0,0,0,0,0,0,6.6162,6.6171,6.6681,6.6684,6.6688,6.6949,6.6953,6.6957,6.6969,6.6966,6.6962,6.6958,6.7217,6.7229,6.7241,0,0,0,0,0,0,0,0,0,0,0,0,0,6.6404,6.6174,6.668,6.6726,6.6733,6.6949,6.6953,6.6958,6.697,6.6966,6.6961,6.6957,6.7213,6.7228,6.7242,6.7426,0,0,6.7287,6.7294,0,0,0,0,0,0,0,0,6.639,6.6423,6.6716,6.6723,6.6731,6.6921,6.6866,6.7114,6.6971,6.688,6.696,6.6954,6.7124,6.7145,6.7206,6.7439,6.745,6.7289,6.7298,6.7304,6.7308,0,0,0,0,0,0,0,6.6374,6.6412,6.6787,6.672,6.6729,6.6727,6.6757,6.6913,6.7024,6.6887,6.6889,6.6921,6.7127,6.7191,6.7212,6.7454,6.7288,6.7301,6.731,6.7316,6.7846,6.7851,0,0,0,0,0,0,6.635,6.6398,6.6778,6.6795,6.6546,6.6741,6.6773,6.6865,6.7022,6.7042,6.6925,6.6921,6.7169,6.7195,6.7221,6.7445,6.7304,6.7318,6.7326,6.7841,6.7847,6.7853,0,0,0,0,0,0,6.6339,6.6384,6.6767,6.6597,6.6646,6.6755,6.6857,6.6872,6.6937,6.7051,6.7069,6.6972,6.7166,6.72,6.7375,6.7454,6.7324,6.7338,6.7835,6.7843,6.785,6.7894,0,0,0,0,0,0,6.6324,6.638,6.6455,6.6599,6.6655,6.6922,6.6862,6.6881,6.6964,6.6962,6.71,6.7118,6.7165,6.7353,6.739,6.7472,6.7349,6.7828,6.7838,6.7847,6.7886,6.7902,6.7916,0,0,0,0,0,6.6306,6.6455,6.6459,6.6505,6.6752,6.6927,6.6958,6.7013,6.6971,6.7044,6.7117,6.7114,6.744,6.7371,6.7412,6.75,6.7823,6.7835,6.7847,6.7879,6.7899,6.7916,0,0,0,0,0,0,6.6313,6.6474,6.6481,6.6682,6.6791,6.6929,6.7024,6.7033,6.7153,6.7145,6.7203,6.7234,6.7407,6.7471,6.7392,6.7684,6.7626,6.7646,6.7636,6.7656,6.7671,6.7651,6.7361,0,0,0,0,0,6.6339,6.6472,6.6604,6.6768,6.6823,6.6914,6.6992,6.7026,6.7139,6.7183,6.7269,6.7375,6.75,6.7582,6.7704,6.7896,6.7923,6.7975,6.7991,6.8003,6.8019,6.812,6.8144,6.7891,6.7891,6.7891,0,0,6.6391,6.6496,6.6576,6.6772,6.6861,6.6992,6.6953,6.7094,6.7191,6.7203,6.7375,6.7441,6.7562,6.7745,6.783,6.7803,6.8095,6.8018,6.8026,6.8036,6.8135,6.8159,6.818,6.7899,6.7898,6.7897,0,0,6.6555,6.665,6.6796,6.6886,6.7022,6.7081,6.7116,6.7253,6.7298,6.7472,6.7483,6.7596,6.7813,6.7898,6.797,6.8163,6.8163,6.8201,6.828,6.8378,6.8398,6.8416,6.8481,6.8505,6.8217,6.8217,6.8218,0,6.6602,6.6807,6.6868,6.7011,6.7094,6.7116,6.7261,6.7343,6.751,6.7564,6.7534,6.7805,6.7888,6.809,6.8137,6.8196,6.8233,6.8185,6.8391,6.841,6.8427,6.849,6.8515,6.8221,6.8221,6.822,6.822,0,6.6856,6.6997,6.7098,6.7263,6.7358,6.75,6.7578,6.7665,6.769,6.775,6.7923,6.8025,6.8166,6.8217,6.824,6.8421,6.84,6.838,6.8322,6.8454,6.8514,6.8539,6.8226,6.8225,6.8224,6.8223,0,0,6.7032,6.723,6.7265,6.7339,6.749,6.7597,6.7737,6.7881,6.7953,6.8066,6.8182,6.8365,6.8347,6.8428,6.8461,6.8548,6.869,6.8516,6.852,6.8542,6.889,6.8902,6.893,6.8691,6.8696,6.87,6.8878,0,6.721,6.7467,6.7525,6.7744,6.7872,6.7894,6.8015,6.8118,6.8177,6.829,6.8354,6.8481,6.845,6.8498,6.8585,6.8654,6.876,6.8642,6.8795,6.8799,6.8762,6.8962,6.8977,6.914,6.8903,6.8907,6.891,0,6.7452,6.7576,6.7808,6.794,6.7996,6.8106,6.8239,6.8349,6.8463,6.85,6.8591,6.8614,6.8755,6.8692,6.8885,6.8804,6.8869,6.8912,6.8919,6.8933,6.8861,6.8978,6.9194,6.9217,6.8948,6.8945,6.8942,0,6.7553,6.7777,6.7944,6.8007,6.8166,6.8241,6.831,6.8421,6.8502,6.8617,6.8669,6.8798,6.8867,6.8964,6.9019,6.8969,6.9206,6.9148,6.9236,6.9234,6.9283,6.9279,6.9509,6.933,6.9329,6.9329,6.9328,0,6.7744,6.7885,6.7992,6.8094,6.8251,6.8314,6.8465,6.8532,6.863,6.8741,6.8766,6.8869,6.8938,6.9049,6.9093,6.9243,6.9275,6.9305,6.9314,6.9302,6.9297,6.9343,6.9332,6.9335,6.9334,6.9333,6.9332,0,6.7883,6.7961,6.8144,6.828,6.8317,6.8426,6.8539,6.8637,6.8697,6.8838,6.8874,6.8966,6.9098,6.9164,6.9327,6.9356,6.9525,6.9529,6.9488,6.9491,6.9574,6.9564,6.984,6.9878,6.9675,6.9677,6.9679,0,6.7999,6.8108,6.8256,6.8336,6.8407,6.8534,6.8618,6.8682,6.8767,6.8905,6.8984,6.9119,6.923,6.9438,6.9516,6.964,6.9645,6.9733,6.9663,6.9646,6.9642,6.9634,6.9644,6.9744,6.9746,6.9748,6.9749,0,6.8195,6.8228,6.8351,6.8487,6.8588,6.8697,6.8803,6.8865,6.8946,6.9039,6.9177,6.9263,6.9431,6.9562,6.9692,6.9756,6.9764,6.9771,6.9797,6.9784,6.9755,6.9769,6.9519,6.9764,6.9762,6.9761,6.976,6.976,6.8324,6.8421,6.8541,6.8675,6.8763,6.8862,6.896,6.9034,6.9151,6.9296,6.9326,6.947,6.9577,6.9753,6.9821,6.9931,6.9911,6.995,6.996,6.9967,6.997,6.974,6.9955,6.9955,6.9954,6.9954,6.9954,0,6.8519,6.8597,6.8721,6.8872,6.8976,6.8981,6.9098,6.9184,6.9313,6.9415,6.9524,6.968,6.9807,6.9895,7.0023,7.0094,7.01,7.0124,7.0118,7.0132,6.9982,6.9946,7.0117,7.0117,7.0117,7.0117,7.0117,7.0117,6.8633,6.8796,6.8843,6.9048,6.9124,6.927,6.9336,6.9425,6.9507,6.9682,6.9789,6.9848,6.9942,7.0077,7.0191,7.0214,7.0258,7.0282,7.0303,7.0161,7.0143,7.0127,7.0093,7.0292,7.0292,7.0444,7.0445,7.0446]}]]